Simultaneous Nadir Overpasses (SNOs) Predictions

Prediction of SNOs between GOES-15 and METOP-C Satellite Orbit:

Table of predicted SNOs for the next 14.0 days since TLE Epoch: 2/28/2020
Index Date Time (GOES-15) GOES-15 Lat,Lon METOP-C Lat,Lon Distance(km) Time Diff (sec)
1 03/01/2020 06:10:17 -0.18,-128.43 -0.35,-129.35 103.52 80
2 03/02/2020 05:46:58 -0.15,-128.43 0.79,-124.36 464.51 80
3 03/03/2020 18:08:31 0.18,-128.46 0.28,-128.91 52.10 80
4 03/06/2020 06:06:52 -0.19,-128.40 -0.23,-128.51 12.57 80
5 03/08/2020 18:02:25 0.20,-128.40 0.16,-128.07 37.07 80
6 03/10/2020 06:24:06 -0.23,-128.35 -1.18,-132.66 491.52 80
7 03/11/2020 06:00:46 -0.21,-128.33 -0.09,-127.66 75.52 80
8 03/12/2020 18:22:20 0.24,-128.34 1.11,-132.23 442.89 80




NCC Satellite Simultaneous Nadir Overpasses (SNOs) Prediction Service
